Regional Weather Roundup
Issued by NWS Newport/Morehead, NC

Current Version | Previous Version | Graphics & Text | Print | Product List | Glossary On
Versions: 1 2 3 4 5 6 7 8 9 10 11 12 13 14 15 16 17 18 19 20 21 22 23 24 25 26 27 28 29 30 31 32 33 34 35 36 37 38 39 40 41 42 43
000 ASUS42 KMHX 211513 RWRMHX WEATHER ROUNDUP FOR EASTERN NORTH CAROLINA NATIONAL WEATHER SERVICE NEWPORT/MOREHEAD CITY NC 1000 AM EST SUN JAN 21 2018 NOTE: "FAIR" INDICATES FEW OR NO CLOUDS BELOW 12,000 FEET WITH NO SIGNIFICANT WEATHER AND/OR OBSTRUCTIONS TO VISIBILITY NCZ015>017-031-032-045>047-102-103-211600- NORTH COAST CITY SKY/WX TMP DP RH WIND PRES REMARKS EDENTON FAIR 52 38 60 W3 30.26R ELIZABETH CITY FAIR 51 44 77 N7 30.24R KITTY HAWK FAIR 46 33 59 CALM 30.22S MANTEO FAIR 47 34 59 CALM 30.25R $$ NCZ045>047-081-094-103-104-211600- CENTRAL COAST CITY SKY/WX TMP DP RH WIND PRES REMARKS FRISCO FAIR 48 35 60 W6 30.25R $$ NCZ095-097-098-100-101-211600- SOUTHERN COAST CITY SKY/WX TMP DP RH WIND PRES REMARKS BEAUFORT FAIR 48 37 65 NW5 30.27R CEDAR ISLAND NOT AVBL JACKSONVILLE FAIR 49 35 58 W3 30.26S PINEY ISLAND NOT AVBL WILMINGTON FAIR 50 36 58 W5 30.29R $$ NCZ011>013-027>030-043-044-078>080-089-090>093-098-211600- COASTAL PLAIN CITY SKY/WX TMP DP RH WIND PRES REMARKS AHOSKIE FAIR 48 40 71 N3 30.26R CLINTON FAIR 50 35 56 CALM 30.27F ELIZABETHTOWN NOT AVBL GOLDSBORO FAIR 53 34 50 W5 30.25R GREENVILLE FAIR 54 36 50 CALM 30.26S HAVELOCK NOT AVBL KENANSVILLE FAIR 54 36 50 W5 30.27S KINSTON FAIR 54 36 50 CALM 30.27R NEW BERN FAIR 52 35 52 NW5 30.27S RICHLANDS FAIR 49 34 56 SW3 30.27S ROCKY MOUNT NOT AVBL WASHINGTON FAIR 52 35 54 W3 30.27R WHITEVILLE FAIR 52 36 54 CALM 30.28R $$ AMZ130-135-150-152-154-156-158-170-250-252-270-ANZ085-086-088-633-658-670-211600- MARINE OBSERVATIONS STATION/POSITION TIME TEMP WIND PRES WAVE SWELL AIR SEA DIR/SP/G HT/PER HT/PER (UTC) (F) (DEG/KT/KT) (MB) (FT/S) (FT/S) CHESAPEAKE LIGHT NOT AVBL 64 E VA BEACH 1450 51 58 330/ 6/ 8 1024.0 2/ 6 2/ 6 DUCK 1448 46 40 320/ 4/ 5 1023.3 2 E DUCK 1500 40 N/A 1/11 OREGON INLET 1442 47 40 280/ 4/ 5 1023.9 13E OREGON INLT 1448 40 N/A 2/11 2/11 HATTERAS CG 1448 47 49 260/ 9/ 12 1024.2 DIAMOND BUOY 1500 54 69 310/ 8/ 12 1024.6 CAPE LOOKOUT 1500 290/ 7/ 8 1025.2 BEAUFORT LAB 1448 47 46 280/ 1/ 3 1024.8 30 SE NEW RVR IN 1408 54 57 320/ 8/ 12 1025.0 30 SE NEW RVR IN 1500 57 N/A 2/ 5 27 SE WRIGHTSVLE 1408 53 59 300/ 8/ 10 1024.8 5 SE WRIGHTSVLE 1408 46 45 290/ 2/ 4 1024.5 225 S CAPE HAT 1450 69 70 210/ 12/ 14 1025.4 3/10 3/10 41 SE CHARLESTON 1500 60 70 340/ 4/ 6 1025.5 $$

USA.gov is the U.S. government's official web portal to all federal, state and local government web resources and services.